{"data":{"norad_id":65806,"intl_designator":"2025-218R","name":"STARLINK-35047","alt_names":[],"object_type":"PAYLOAD","status":"ACTIVE","operator":null,"country":"US","launch_date":"2025-09-26","launch_site_code":"AFWTR","launch_vehicle":null,"mission":null,"orbit_class":"UNKNOWN","rcs_meters":null,"size_class":null,"mass_kg":null,"dimensions":null,"purposes":["comms"],"wikipedia_slug":null,"has_3d_model":false,"image_url":null,"decayed_at":null,"tle_current":{"epoch":"2026-05-25T03:27:09.921312Z","epoch_age_seconds":52901,"freshness":"FRESH","line1":"1 65806U 25218R   26145.14386483  .00008392  00000+0  58506-3 0  9996","line2":"2 65806  97.4505   7.9306 0002028  78.3266 281.8189 15.05647514 36471","mean_motion":15.05647514,"eccentricity":0.0002028,"inclination_deg":97.4505,"raan_deg":7.9306,"arg_perigee_deg":78.3266,"mean_anomaly_deg":281.8189,"bstar":0.00058506,"rev_number":3647,"period_min":95.639914828033,"perigee_km":548.11385101603,"apogee_km":550.92370820024,"semimajor_km":6927.6557796081,"source":"CELESTRAK","updated_at":"2026-05-25T13:38:20.939167Z"}}}